www.pogodaiklimat.ru

Погода и климат >> Архив погоды >> Россия >> Ростовская область >> Маргаритово


ПОГОДА в Маргаритово

  • Прогноз погоды в Маргаритово
  • Монитор погоды в Маргаритово

АРХИВ ПОГОДЫ в Маргаритово

Время (UTC), дата Ветер
(напр.,м/с)
 
Видим.   Явления Облачность Т
(С)
Тd
(С)
f
(%)
Тe
(С)
Тes
(С)
Комфортность P
(гПа)
Po
(гПа)
Тmin
(С)
Tmax
(С)
R
(мм)
R24
(мм)
S
(см)
06 19.08 С 1 10 км слаб. ливневой дождь 10/10 600 м
[Cb cap]
+20.9 +19.6 92 +27 +27 душно 1015.6 1014.0
09 19.08 СЗ 3 20 км {ливн. осадки} 8/8 600 м
[Cb cap]
+24.0 +20.4 80 +30 +32 очень
душно
1016.1 1014.6
12 19.08 СЗ 2 20 км {ливн. осадки} 8/3 600 м
[Cb cap Ci fib]
+25.1 +19.8 72 +31 +37 очень
душно
1016.5 1015.0
15 19.08 СЗ 2 20 км 3/0 2000 м
[Ac cuf]
+25.7 +19.5 69 +31 +32 очень
душно
1016.8 1015.3 +26.0 2
18 19.08 СЗ 2 20 км 4/0 2000 м
[Ac cast]
+24.5 +20.7 79 +30 +30 очень
душно
1017.5 1016.0
21 19.08 С 4 10 км 4/0
[Ci fib]
+23.7 +20.8 84 +30 +30 очень
душно
1017.3 1015.8
00 20.08 С 5 10 км 3/0
[Ci fib]
+23.1 +20.4 85 +30 +30 очень
душно
1016.9 1015.4
03 20.08 СВ 2 4000 м дымка 6/0 2000 м
[Ac cast]
+22.2 +20.5 90 +29 +29 очень
душно
1017.9 1016.4 +22.1
06 20.08 С 5 4000 м дымка 8/0 2000 м
[Ac trans]
+24.1 +20.7 81 +30 +32 очень
душно
1018.5 1017.0
09 20.08 С 5 10 км 10/0
[Cs]
+27.8 +20.6 65 +35 +41 очень
душно
1018.2 1016.7
12 20.08 СЗ 3 10 км ясно +30.5 +20.3 55 +37 +46 очень
душно
1017.1 1015.6
15 20.08 С 4 20 км ясно +29.4 +21.8 64 +38 +39 очень
душно
1017.0 1015.6 +31.3
18 20.08 С 5 20 км ясно +27.0 +21.1 70 +34 +34 очень
душно
1016.9 1015.4
21 20.08 С 6
{10}
20 км 3/0
[Ci sp]
+25.1 +19.5 71 +30 +30 душно 1017.1 1015.6
00 21.08 С 8-11
{11}
20 км 4/0
[Ci sp]
+24.2 +18.2 69 +29 +29 душно 1016.5 1015.0
03 21.08 СВ 7-10
{12}
20 км 4/0
[Ci sp]
+23.3 +18.0 72 +29 +29 душно 1016.2 1014.7 +23.3
06 21.08 СВ 7-12
{12}
20 км 9/0
[Ci sp]
+24.3 +17.1 64 +28 +30 душно 1016.2 1014.6
09 21.08 СВ 6-11
{12}
20 км 3/0
[Ci fib]
+29.5 +17.6 49 +34 +39 очень
душно
1015.5 1014.0
12 21.08 СВ 5
{11}
20 км 9/5 1000 м
[Cb cap Ci fib]
+32.2 +16.9 40 +36 +38 очень
душно
1014.1 1012.6
15 21.08 С 4 20 км 8/3 1000 м
[Cu hum Ac cuf Ci fib]
+29.8 +17.8 49 +34 +35 очень
душно
1013.5 1012.0 +32.8
18 21.08 СВ 5 20 км 8/5 600 м
[Cb cap Ac As]
+27.2 +19.2 62 +33 +33 очень
душно
1013.7 1012.2
21 21.08 С 7-10
{10}
20 км 8/0 2000 м
[Ac trans Cs]
+26.1 +18.0 61 +31 +31 очень
душно
1013.3 1011.8
00 22.08 СВ 6
{10}
20 км 6/0 2000 м
[Ac trans Cs]
+24.9 +16.3 59 +28 +28 жарко 1013.1 1011.6
03 22.08 СВ 5 20 км 8/8 600 м
[Cb cap]
+24.0 +15.3 58 +27 +27 жарко 1013.0 1011.5 +23.9
06 22.08 В 4
{11}
20 км 6/3 1000 м
[Cu med, cong Ci fib]
+26.7 +14.1 46 +29 +32 жарко 1014.1 1012.6
09 22.08 СВ 5 20 км 6/3 1000 м
[Cu med, cong Ci fib]
+32.0 +14.3 34 +34 +38 душно 1014.1 1012.6
12 22.08 СВ 5 20 км 9/5 1000 м
[Cb cap Ci fib]
+33.0 +16.0 36 +36 +38 очень
душно
1013.3 1011.8
15 22.08 СВ 4 20 км 8/3 1000 м
[Cu med, cong Ac cuf Ci fib]
+30.0 +17.6 47 +34 +34 очень
душно
1013.3 1011.8 +33.6
18 22.08 С 7-10
{10}
10 км 8/3 1000 м
[Cu hum Ac cuf Ci sp]
+27.9 +17.2 52 +32 +32 душно 1014.2 1012.7
21 22.08 С 6
{10}
20 км 4/0 2000 м
[Ac cast]
+25.6 +18.4 64 +30 +30 душно 1014.2 1012.7
00 23.08 С 6
{10}
20 км 3/0
[Ci fib]
+24.6 +18.2 68 +29 +29 душно 1013.8 1012.3
03 23.08 С 6 20 км 4/0
[Ci fib]
+23.8 +17.3 67 +28 +28 душно 1004.6 1013.1 +23.8
06 23.08 СВ 6-10
{11}
20 км ясно +26.6 +15.4 50 +29 +32 жарко 1015.1 1013.6
09 23.08 СВ 6
{10}
20 км ясно +31.2 +13.6 34 +32 +38 жарко 1014.8 1013.3
12 23.08 С 5
{10}
20 км ясно +34.6 +14.1 29 +36 +41 душно 1014.2 1012.7
15 23.08 СВ 3 20 км ясно +33.4 +14.9 33 +35 +36 душно 1014.0 1012.5 +35.5
18 23.08 С 6
{10}
20 км ясно +28.5 +18.7 55 +34 +34 очень
душно
1015.2 1013.7
21 23.08 СВ 7-10
{10}
20 км ясно +26.4 +17.3 57 +30 +30 душно 1015.2 1013.7
00 24.08 С 7
{11}
20 км 3/0 2000 м
[Ac cast]
+25.0 +17.3 62 +29 +29 душно 1015.2 1013.7
03 24.08 С 7-10
{11}
20 км 3/3 1000 м
[Cu med, cong Ac cast]
+24.2 +16.1 61 +28 +28 душно 1015.9 1014.4 +24.1
06 24.08 СВ 6-10
{12}
20 км 8/4 600 м
[Cb cap Ci sp]
+26.9 +16.4 53 +30 +32 душно 1016.5 1015.0
09 24.08 С 7-11
{12}
20 км 3/0
[Ci sp]
+32.4 +15.1 35 +34 +38 очень
жарко
1015.8 1014.4
12 24.08 С 8-11
{12}
20 км 3/0
[Ci sp]
+32.9 +17.3 39 +36 +38 очень
душно
1015.6 1014.1
15 24.08 С 6-10
{11}
20 км 3/0
[Ci sp]
+30.9 +18.3 47 +36 +36 очень
душно
1015.5 1014.0 +33.6
18 24.08 С 6
{10}
20 км 3/0
[Ci fib]
+28.1 +18.8 57 +33 +33 очень
душно
1016.5 1015.0
21 24.08 С 6 20 км 3/0
[Ci fib]
+26.1 +18.0 61 +31 +31 очень
душно
1016.6 1015.1
00 25.08 С 7
{10}
20 км 3/0
[Ci fib]
+24.9 +17.2 62 +29 +29 душно 1016.0 1014.5
03 25.08 С 7-11
{11}
20 км 4/0
[Ci fib]
+23.8 +16.5 64 +27 +27 жарко 1016.5 1015.0 +23.8
06 25.08 СВ 8-11
{11}
20 км 3/0
[Ci fib]
+26.1 +15.4 52 +29 +30 жарко 1017.3 1015.8 +23.8
09 25.08 С 7-10
{11}
20 км 3/0
[Ci fib]
+31.0 +14.9 38 +33 +37 душно 1016.8 1015.3
12 25.08 С 6
{10}
20 км 1/0
[Ci fib]
+32.3 +14.9 35 +34 +38 душно 1016.7 1015.2
15 25.08 С 5 20 км 3/3 1000 м
[Cu hum]
+30.8 +17.4 45 +35 +35 очень
душно
1016.4 1015.0 +32.5
18 25.08 С 7-11
{11}
20 км 3/0
[Ci]
+27.7 +17.7 54 +32 +32 очень
душно
1018.3 1016.8
21 25.08 СВ 6-10
{11}
20 км ясно +25.8 +14.9 51 +29 +29 душно 1019.4 1017.9
00 26.08 СВ 4
{11}
20 км н/о +23.2 +10.4 44 +25 +25 комфорт 1019.9 1018.4
03 26.08 СВ 4 20 км 1/1 1000 м
[Cu hum]
+21.9 +7.1 38 +23 +23 комфорт 1020.9 1019.4 +21.9

 

Местоположение метеостанции Маргаритово (Ростовская область, Россия): широта 46.93 долгота 38.87 высота над уровнем моря 13 м.

В архиве по умолчанию представлена погода в Маргаритово за последнюю неделю. Архивные данные за месяц целиком и за предыдущие месяцы, начиная с января 2011 года, Вы можете получить, выбрав интересующий диапазон дат из раскрывающегося списка и нажав кнопку "Ввод!".


*Определитесь, кто Вы:
робот инопланетянин человек

Внимание! Время в таблицах - всемирное. Для получения местного времени необходимо прибавить поправку, которая равна 3 ч.

Смотрите также архив погоды в соседних городах и на ближайших метеорологических станциях:

Погода в Таганроге (Ростовская область, Россия) (30 км)
Погода в Староминская (Краснодарский край, Россия) (46 км)
Погода в Ейске (Краснодарский край, Россия) (48 км)
Погода в Матвеевом Кургане (Ростовская область, Россия) (71 км)
Погода в Кущевской (Краснодарский край, Россия) (72 км)
Погода в Ростове-на-Дону (Ростовская область, Россия) (81 км)
Погода в Должанке (Краснодарский край, Россия) (91 км)
Погода в Каневской (Краснодарский край, Россия) (96 км)
Погода в Аэропорту Платов (Ростовская область, Россия) (101 км)
Погода в Мариуполе (Донецкая область, Украина) (105 км)

Пояснения к столбцам:

Ветер - указаны скорость ветра в м/с - средняя за 10 мин, порывы в срок и между сроками (в фигурных скобках) и направление, откуда дует ветер: С - северный, СВ - северо-восточный, В - восточный, ЮВ - юго-восточный, Ю - южный, ЮЗ - юго-западный, З - западный, СЗ - северо-западный.
Видимость - горизонтальная дальность видимости в метрах или километрах. При видимости от 1 до 10 км при отсутствии осадков обычно наблюдается дымка, при ухудшении видимости до 1 км и менее - туман. В сухую погоду видимость может ухудшаться дымом, пылью или мглою.
Явления - указаны атмосферные явления, наблюдавшиеся в срок или в последний час перед сроком; фигурными скобками обозначены явления, наблюдавшиеся между сроками (за 1-3 часа до срока); квадратными скобками обозначены град или гололедные отложения с указанием их диаметра в мм.
Облачность - указаны через наклонную черту общая и нижняя облачность в баллах и высота нижней границы облаков в метрах; квадратными скобками обозначены формы облаков: Ci - перистые, Cs - перисто-слоистые, Cc - перисто-кучевые, Ac - высококучевые, As - высокослоистые, Sc - слоисто-кучевые, Ns - слоисто-дождевые, Cu - кучевые, Cb - кучево-дождевые. Подробнее классификацию облаков см. в Атласе облаков (PDF).
T - Температура воздуха - температура, измеренная на высоте 2 м над землей.
Td - Температура точки росы - температура, при понижении до которой содержащийся в воздухе водяной пар достигнет насыщения.
f - Относительная влажность воздуха - влажноcть воздуха, измеренная на высоте 2 м над землей.
Te - Эффективная температура - температура, которую ощущает одетый по сезону человек в тени. Характеристика душности погоды. При расчете учитывается влияние влажности воздуха и скорости ветра на теплоощущения человека.
Tes - Эффективная температура на солнце - температура, которую ощущает человек, с поправкой на солнечный нагрев. Характеристика знойности погоды. Зависит от высоты солнца над горизонтом, облачности и скорости ветра. Ночью, в пасмурную погоду, а также при ветре 12 м/с и более поправка равна нулю.
P - Атмосферное давление - приведенное к уровню моря атмосферное давление.
Po - Атмосферное давление - измеренное на уровне метеостанции атмосферное давление.
Tmin - Минимальная температура - минимум температуры воздуха на высоте 2 м над землей.
Tmax - Максимальная температура - максимум температуры воздуха на высоте 2 м над землей.
R - Количество осадков - Количество выпавших осадков за период времени, мм. При наведении курсора мыши на число - период времени, за который выпало указанное количество осадков.
R24 - Количество осадков - Количество выпавших осадков за 24 часа, мм.
S - Снежный покров - Высота снежного покрова, см. При наведении курсора мыши на число - состояние снежного покрова и степень покрытия местности в баллах.